Flag for United Kingdom Weather past 2 weeks in Bournemouth, England, United Kingdom

Now
46 °F

Scattered clouds.


Feels Like: 45 °F
Forecast: 42 / 62 °F
Wind: 3 mph from West

Location: Bournemouth Airport

Current Time: May 26, 2015 at 6:55:32 AM

Latest Report: May 26, 2015 at 6:20 AM


Visibility: N/A

Pressure: 30.21 "Hg

Humidity: 93%

Dew point: 45 °F

Location of BournemouthLocation

Historic Weather in Bournemouth — Graph

°F

Bournemouth temperature yesterday

Maximum temperature yesterday: 61 °F (at 11:50 AM)
Minimum temperature yesterday: 45 °F (at 5:20 AM)
Average temperature yesterday: 56 °F

Past Weeks' High & Low Weather Summary

 TemperatureHumidityPressure
High70 °F (May 23, 1:20 PM)100% (May 11, 5:20 AM)30.39 "Hg (May 11, 5:20 AM)
Low34 °F (May 13, 4:50 AM)44% (May 18, 4:50 PM)29.65 "Hg (May 19, 5:20 AM)
Average55 °F74%30.10 "Hg
* Reported May 11 5:20 AM — May 26 5:50 AM, Bournemouth, Weather by CustomWeather, © 2015

Note: Actual official high and low records may vary slightly from our data, if they occured in-between our weather recording intervals... More about our weather records

Advertising

Bournemouth weather history for previous 24 hours

 ConditionsComfort  
Time TempWeatherWind HumidityBarometerVisibility
5:50 AM
Tue, May 26
43 °FPassing clouds.3 mph100%30.21 "HgN/A
5:20 AM45 °FFog.3 mph93%30.21 "HgN/A
12:50 AM52 °FPassing clouds.3 mph94%30.18 "HgN/A
12:20 AM52 °FPassing clouds.5 mph88%30.18 "HgN/A
11:50 PM
Mon, May 25
52 °FPassing clouds.5 mph88%30.15 "HgN/A
11:20 PM54 °FPassing clouds.3 mph88%30.15 "HgN/A
10:50 PM55 °FOvercast.6 mph82%30.15 "HgN/A
10:20 PM55 °FPassing clouds.6 mph82%30.15 "HgN/A
9:50 PM55 °FSunny.7 mph82%30.15 "Hg10 mi
9:20 PM57 °FPassing clouds.6 mph77%30.12 "HgN/A
8:50 PM57 °FPassing clouds.5 mph72%30.12 "HgN/A
8:20 PM57 °FPassing clouds.6 mph72%30.12 "HgN/A
7:50 PM59 °FPassing clouds.10 mph68%30.12 "HgN/A
7:20 PM61 °FPassing clouds.9 mph63%30.12 "HgN/A
6:50 PM61 °FScattered clouds.9 mph63%30.12 "HgN/A
6:20 PM59 °FPartly sunny.9 mph68%30.09 "HgN/A
5:50 PM59 °FPartly sunny.7 mph68%30.09 "HgN/A
5:20 PM59 °FPartly sunny.7 mph68%30.09 "HgN/A
4:50 PM61 °FPartly sunny.9 mph63%30.09 "HgN/A
4:20 PM61 °FPartly sunny.9 mph59%30.09 "HgN/A
3:50 PM61 °FPartly sunny.10 mph59%30.09 "HgN/A
3:20 PM61 °FPartly sunny.7 mph55%30.09 "HgN/A
2:50 PM61 °FPartly sunny.9 mph59%30.09 "HgN/A
2:20 PM61 °FPartly sunny.8 mph59%30.09 "HgN/A
1:50 PM61 °FBroken clouds.8 mph63%30.09 "HgN/A
1:20 PM59 °FPartly sunny.8 mph63%30.09 "HgN/A
12:50 PM61 °FScattered clouds.8 mph59%30.09 "HgN/A
12:20 PM61 °FScattered clouds.10 mph59%30.12 "HgN/A
11:50 AM61 °FScattered clouds.10 mph59%30.12 "HgN/A
11:20 AM59 °FScattered clouds.8 mph63%30.12 "HgN/A
10:50 AM59 °FScattered clouds.8 mph59%30.12 "HgN/A
10:20 AM59 °FScattered clouds.8 mph59%30.12 "HgN/A
9:50 AM57 °FPassing clouds.7 mph59%30.12 "HgN/A
9:20 AM57 °FPassing clouds.6 mph63%30.12 "HgN/A
8:50 AM55 °FSunny.3 mph59%30.15 "Hg10 mi
8:20 AM54 °FPassing clouds.5 mph72%30.15 "HgN/A
7:50 AM50 °FPassing clouds.5 mph88%30.12 "HgN/A
7:20 AM50 °FPassing clouds.6 mph82%30.12 "HgN/A
6:50 AM48 °FSunny.3 mph87%30.12 "Hg10 mi
6:20 AM48 °FSunny.5 mph87%30.12 "Hg10 mi
Weather by CustomWeather, © 2015

See weather overviewHow to use our weather pages